Regional Weather Roundup
Issued by NWS Sioux Falls, SD

Home | Current Version | Previous Version | Text Only | Print | Product List | Glossary Off
Versions: 1 2 3 4 5 6 7 8 9 10 11 12 13 14 15 16 17 18 19 20 21 22 23 24 25 26 27 28 29 30 31 32 33 34 35 36 37 38 39 40 41 42 43 44 45 46 47 48 49 50

000
ASUS43 KFSD 192310
RWRFSD

WEATHER ROUNDUP FOR SE SOUTH DAKOTA/SW MINNESOTA/NW IOWA
NATIONAL WEATHER SERVICE SIOUX FALLS SD
500 PM CST SUN NOV 19 2017

NOTE: "FAIR" INDICATES FEW OR NO CLOUDS BELOW 12,000 FEET WITH NO
SIGNIFICANT WEATHER AND OR OBSTRUCTIONS TO VISIBILITY.


SDZ038>040-050-052>070-200000-
SOUTHEAST SOUTH DAKOTA

CITY           SKY/WX    TMP DP  RH WIND       PRES   REMARKS
BROOKINGS      CLOUDY    41  24  51 S9        29.86F
CHAMBERLAIN    CLOUDY    51  28  40 CALM      29.85F
HURON          CLOUDY    46  23  40 SW7       29.84F
MADISON        FAIR      41  23  48 SW7       29.87S
MITCHELL       CLOUDY    49  26  41 S6        29.87S
SIOUX FALLS    CLOUDY    49  27  42 SW5       29.88F
WINNER         FAIR      53  21  28 SW7       29.85F
YANKTON        CLOUDY    52  25  35 S3        29.88F
$$

MNZ071-072-080-081-089-090-097-098-200000-
SOUTHWEST MINNESOTA

CITY           SKY/WX    TMP DP  RH WIND       PRES   REMARKS
FAIRMONT       CLEAR     40  26  57 S6        29.92F
JACKSON        CLOUDY    41  23  48 CALM      29.91F
LUVERNE        CLOUDY    37  21  52 S5        29.90S
MARSHALL       CLOUDY    45  24  43 SW13      29.86F
MONTEVIDEO     CLOUDY    45  23  42 W7        29.85S
PIPESTONE      CLOUDY    37  25  60 S7        29.87F
REDWOOD FALLS  CLOUDY    43  23  45 SW9       29.86F
WINDOM         CLOUDY    43  23  45 S8        29.90S
WORTHINGTON    CLOUDY    42  25  50 S8        29.91S
$$

IAZ001>003-012>014-020>022-031-032-NEZ013-014-SDZ071-200000-
NORTHWEST IOWA

CITY           SKY/WX    TMP DP  RH WIND       PRES   REMARKS
CHEROKEE       CLOUDY    45  29  54 S7        29.93F
DENISON        CLEAR     46  28  49 S10       29.96F
ESTHERVILLE    CLOUDY    39  26  59 SW9       29.92F
LE MARS        CLOUDY    50  27  40 SW8       29.91S
ORANGE CITY    CLOUDY    46  28  49 S5        29.91S
SHELDON        CLOUDY    43  27  52 S7        29.90S
SIOUX CITY     CLOUDY    50  25  37 SW10      29.93S
SPENCER        CLOUDY    39  26  59 S7        29.93F
STORM LAKE     CLOUDY    41  27  56 S8        29.94S
$$

ABBREVIATIONS USED IN REMARKS
   TC - TEMPERATURE IN CELSIUS
  WCI - WIND CHILL INDEX
   HX - HEAT INDEX
  VSB - VISIBILITY





USA.gov is the U.S. government's official web portal to all federal, state and local government web resources and services.